Regional Weather Roundup
Issued by NWS Midland/Odessa, TX

Skip options and go directly to product.
Home | Oldest Version | Next Version | Current Version | All | Text Only | Save Text | Print | Product List | Glossary On

Skip product version selection by date and time.   
404
ASUS44 KMAF 221910
RWRMAF
MIDLAND AREA WEATHER ROUNDUP
NATIONAL WEATHER SERVICE MIDLAND TX
200 PM CDT FRI JUL 22 2016

...IN SOUTHWEST TEXAS AND SOUTHEAST NEW MEXICO...

CITY           SKY/WX    TMP DP  RH WIND       PRES   REMARKS
ALPINE         SUNNY     92  48  22 NE6       30.28F
ANDREWS        FAIR      94  51  23 SE12G18   30.17S
ARTESIA        SUNNY     97  52  21 SE12G20   30.14F
BIG SPRING     SUNNY     95  60  31 SE10G22   30.16F
CARLSBAD       SUNNY     97  50  20 E10G21    30.12F
DRYDEN           N/A     96  59  29 SE14G22   30.09F
FORT STOCKTON  SUNNY     95  54  25 SE12      30.13F
GUAD PASS      SUNNY     90  48  23 E17G23    30.30F
HOBBS          SUNNY     93  46  20 SE12G18   30.19F
MARFA          MOSUNNY   89  51  27 VRB6      30.27F
MIDLAND AIRPK  SUNNY     96  53  23 S10G18    30.15F
MIDLAND INTL   SUNNY     96  55  25 SE13G23   30.14F
ODESSA         SUNNY     94  55  26 S10G24    30.15F
PECOS          SUNNY     97  53  22 CALM      30.08F
PRESIDIO       FAIR      97  52  22 NW6       30.09F
SEMINOLE       SUNNY     96  48  19 SE8G17    30.18F
SNYDER           N/A     94  61  33 S9G16     30.14F
WINK           SUNNY     97  52  21 SE13G21   30.10F
$$
...OTHER STATIONS IN TEXAS...

CITY           SKY/WX    TMP DP  RH WIND       PRES   REMARKS
ABILENE        SUNNY     96  63  33 S9        30.12F
AMARILLO       SUNNY     96  56  26 S13G23    30.15F
AUSTIN         MOSUNNY   97  65  34 MISG      30.06F
BROWNSVILLE    MOSUNNY   91  75  59 E13       30.05F HX 101
CORPUS CHRISTI MOSUNNY   95  74  50 E12G17    30.06F HX 105
DALLAS FTW     MOSUNNY   97  66  36 S9        30.06F HX 100
DEL RIO        SUNNY     96  63  33 SE9G21    30.04F
EL PASO        MOSUNNY   97  49  19 VRB5      30.14F
HOUSTON INT    PTSUNNY   94  71  47 E6        30.06F HX 101
LUBBOCK        SUNNY     96  52  22 S14G22    30.16F
SAN ANGELO     SUNNY     97  62  31 SE15      30.11F
SAN ANTONIO    MOSUNNY   94  66  39 CALM      30.09F
WACO           SUNNY     98  62  30 S10       30.07F
WICHITA FALLS  NOT AVBL
$$
...OTHER LOCATIONS IN NEW MEXICO...

CITY           SKY/WX    TMP DP  RH WIND       PRES   REMARKS
ALAMAGORDO     SUNNY     95  46  18 N6        30.17F
ALBUQUERQUE    MOSUNNY   93  44  18 W6        30.28F
CANNON AFB     SUNNY     95  51  22 S16G28    30.19F
CLOVIS         SUNNY     95  54  24 S14G21    30.20F
HOLLOMAN AFB   SUNNY     96  49  19 VRB2      30.14F
ROSWELL        SUNNY     98  48  18 SE12G18   30.13F
RUIDOSO          N/A     86  41  20 SE8       30.41F
SANTA FE       SUNNY     92  43  18 S10       30.33F
TRUTH OR CONSE SUNNY     95  45  17 VRB3      30.21F
TUCUMCARI      SUNNY    101  46  15 S10G20    30.13F
$$

USA.gov is the U.S. government's official web portal to all federal, state and local government web resources and services.